ARIANE 5 R/B, 44802

Orbit data source: Space-Track

ARIANE 5 R/B, 44802 is space debris in HEO originally from a launch on Tue, 26 Nov 2019 UTC launched from the French Guiana (FRGUI). Debris objects in space refer to the collection of defunct objects orbiting the Earth. Examples of debris include non-operational satellites, rocket bodies, and fragments generated from explosions, collisions, or faulty payload assembly.

Loading next visibility...
Identifier
44802, 2019-080C
Orbit
HEO
Last TLE update
10 hours ago
Origin
Manufacturer
ArianeGroup
Mission
Spacecraft
Bus & Motor
ESC-A, Unknown motor
Mass
~5,000 kg wet, ~5,000 kg dry
Launch date (UTC)
2019-11-26 (6 years ago)
Launch vehicle
Unknown
Launch site
French Guiana (FRGUI)
Object type
Payload
Rocket body
Debris
Shape & HBR
Cyl + 1 Nozzle, 7 m
Radar Cross Section
41.627 m², Large (>1 m²)

Expand to show TLE details & history

TLE from 10 hours ago
0 ARIANE 5 R/B
1 44802U 19080C   25183.70280046  .00003277  00000-0  67443-3 0  9998
2 44802   5.7690 356.6896 7014918 228.6064  45.8890  2.62905766 50033
Epoch: 2025-07-02T16:52Z
TLE epoch observation values (Epoch: 2025-07-02T16:52:01.959Z)
Latitude
Longitude
-177.16642°
Altitude
14,665.648 km
Speed
4.462 km/s
True Right ascension
23h 47m 17s
True Declination
0° 00' 00"
Sunlit
Object was in daylight at epoch
Visualization orbit readout
Latitude
1.48395°
Longitude
-162.56065°
Altitude
20,522.645 km
Speed
3.415 km/s
Apparent Right ascension
01h 00m 07s
Apparent Declination
-6° 07' 42"
Sunlit
Object is in daylight
Visualization observer readout
Local Sidereal Time
14:20:48
Azimuth
33.555° NE
Elevation
-51.658°
Doppler factor
1
Orbital elements
Apogee altitude
31,362.08 km
Perigee altitude
242.973 km
Semi-major axis
22,180.664 km
Eccentricity
0.70149
Inclination
5.769°
RAAN
356.6896°
Arg. of periapsis
228.6064°
True anomaly
Unknown
Mean anomaly
45.889°
Eccentric anomaly
Unknown
Mean motion
0.65702 °/min
Orbital period
547.93 mins
BSTAR
0.00067443
Loading maneuver chart data...
Loading SW <> Apogee altitude chart data...
Loading historical data...
Loading historical data...
Loading historical data...
Loading historical data...
Loading historical data...
Loading historical data...
Loading historical data...
Other satellites on launch #80 in the year 2019 (2019-11-26 UTC)

ARIANE 5 R/B Visibility forecast

Observer location: undefined°, undefined°

Span
Click to sort rows by Start time (UTC) header in descending order
Start Az.
Max El. time (UTC)
Max El. Az.
Max El.
End time (UTC)
End Az.
493 mins2025-07-03 10:23:45.924Z202.654° SW2025-07-03 16:03:45.924Z173.511° S36.676°2025-07-03 18:36:45.924Z129.843° SE
|